Showing default

LEMUR-2 KUTAR, 67394

Orbit data source: Space-Track

LEMUR-2 KUTAR, 67394 is a payload satellite owned by Spire (US) in SSO that was launched on Sun, 11 Jan 2026 UTC via an FALCON 9 launch vehicle from the Air Force Western Test Range (AFWTR). Payload-class satellites include a variety of spacecraft equipped with specific instruments for various scientific and technological missions. These include communications satellites like Starlink; space stations such as the ISS; scientific satellites like the Hubble; Earth observation satellites from companies like Planet Labs, Umbra, and HawkEye 360; GPS; miniature CubeSats for education and research; and military/defense satellites.

Loading next visibility...
Identifier
67394, 2026-004AH
Orbit
SSO
Country
Flag of USUS
Related business
Manufacturer
Spire/Glasgow
Mission
Operational Commercial Imaging
Bus & Motor
CUBESAT 16U, Unknown motor
Mass
~20 kg wet, ~20 kg dry
Launch date (UTC)
2026-01-11 (4 months ago)
Launch vehicle
FALCON 9
Launch site
Air Force Western Test Range (AFWTR)
Object type
Payload
Rocket body
Debris
Shape & HBR
Box + 2 Pan, 0.2 m
Radar Cross Section
0.115 m²

Expand to show TLE details & history
Last TLE update: 19 hours ago

TLE from 19 hours ago
0 LEMUR-2 KUTAR
1 67394U 26004AH  26145.96666656  .00004014  00000-0  19366-3 0  9996
2 67394  97.4487 145.3568 0010374  60.5275 299.6993 15.19214964 20395
Epoch: 2026-05-25T23:11Z
TLE epoch observation values (Epoch: 2026-05-25T23:11:59.990Z)
Latitude
-0.00007°
Longitude
-86.19002°
Altitude
507.765 km
Speed
7.612 km/s
True Right ascension
09h 41m 25s
True Declination
0° 00' 00"
Sunlit
Object was in daylight at epoch
Visualization orbit readout
Latitude
Unknown
Longitude
Unknown
Altitude
Unknown
Speed
Unknown
Apparent Right ascension
Unknown
Apparent Declination
Unknown
Sunlit
N/A
Visualization observer readout
Local Sidereal Time
03:35:33
Azimuth
Unknown
Elevation
Unknown
Doppler factor
Unknown
Orbital elements
Apogee altitude
512.321 km
Perigee altitude
498.04 km
Semi-major axis
6,883.318 km
Eccentricity
0.00104
Inclination
97.4487°
RAAN
145.3568°
Arg. of periapsis
60.5275°
True anomaly
299.59597°
Mean anomaly
299.6993°
Eccentric anomaly
299.64764°
Mean motion
3.80055 °/min
Orbital period
94.72 mins
BSTAR
0.00019366
Loading maneuver chart data...
Computing Atmospheric mass density...
Loading historical data...
Loading historical data...
Loading historical data...
Loading historical data...
Loading historical data...
Loading historical data...
Loading historical data...

Documentation

Showing up to 5 results
|